| time (UTC) | temp F | wind direction | speed knots | gust knots | rain 1hr in | rain 24hr in | rain mn in | humidity % | barometer mb |
| 20260504221245 | 81 | 174 | 1.7 | 9.6 | 0.00 | 0.00 | 0.00 | 48 | 1001.7 |
| 20260504220739 | 82 | 155 | 1.7 | 7.0 | 0.00 | 0.00 | 0.00 | 48 | 1001.7 |
| 20260504220235 | 82 | 119 | 1.7 | 7.0 | 0.00 | 0.00 | 0.00 | 48 | 1001.8 |
| 20260504215728 | 82 | 142 | 2.6 | 7.8 | 0.00 | 0.00 | 0.00 | 48 | 1001.7 |
| 20260504215439 | 82 | 101 | 2.6 | 7.8 | 0.00 | 0.00 | 0.00 | 47 | 1001.8 |
| 20260504214716 | 82 | 270 | 2.6 | 7.8 | 0.00 | 0.00 | 0.00 | 48 | 1001.7 |
| 20260504214209 | 81 | 93 | 2.6 | 7.8 | 0.00 | 0.00 | 0.00 | 48 | 1001.8 |
| 20260504213703 | 81 | 81 | 2.6 | 7.8 | 0.00 | 0.00 | 0.00 | 50 | 1001.9 |
| 20260504213157 | 81 | 196 | 2.6 | 9.6 | 0.00 | 0.00 | 0.00 | 50 | 1001.8 |
| 20260504212652 | 80 | 155 | 3.5 | 10.4 | 0.00 | 0.00 | 0.00 | 50 | 1001.9 |
| 20260504212146 | 80 | 49 | 4.3 | 11.3 | 0.00 | 0.00 | 0.00 | 52 | 1001.9 |
| 20260504211908 | 80 | 174 | 3.5 | 11.3 | 0.00 | 0.00 | 0.00 | 53 | 1002.0 |
| 20260504211134 | 80 | 144 | 3.5 | 10.4 | 0.00 | 0.00 | 0.00 | 55 | 1002.0 |
| 20260504210851 | 79 | 96 | 3.5 | 10.4 | 0.00 | 0.00 | 0.00 | 57 | 1002.0 |
| 20260504210343 | 79 | 142 | 3.5 | 8.7 | 0.00 | 0.00 | 0.00 | 58 | 1002.0 |
| 20260504205841 | 78 | 100 | 2.6 | 7.0 | 0.00 | 0.00 | 0.00 | 59 | 1001.9 |
| 20260504205109 | 78 | 138 | 2.6 | 7.0 | 0.00 | 0.00 | 0.00 | 61 | 1002.0 |
| 20260504204604 | 77 | 322 | 3.5 | 9.6 | 0.00 | 0.00 | 0.00 | 61 | 1002.1 |
| 20260504204058 | 77 | 98 | 3.5 | 9.6 | 0.00 | 0.00 | 0.00 | 60 | 1002.3 |
| 20260504203551 | 77 | 96 | 2.6 | 8.7 | 0.00 | 0.00 | 0.00 | 59 | 1002.4 |
| 20260504203046 | 77 | 98 | 2.6 | 8.7 | 0.00 | 0.00 | 0.00 | 59 | 1002.4 |
| 20260504202540 | 77 | 78 | 2.6 | 7.8 | 0.00 | 0.00 | 0.00 | 61 | 1002.6 |
| 20260504202034 | 77 | 160 | 2.6 | 8.7 | 0.00 | 0.00 | 0.00 | 59 | 1002.5 |
| 20260504201528 | 76 | 120 | 3.5 | 8.7 | 0.00 | 0.00 | 0.00 | 59 | 1002.5 |
| 20260504201022 | 76 | 106 | 3.5 | 9.6 | 0.00 | 0.00 | 0.00 | 60 | 1002.6 |
| 20260504200737 | 75 | 113 | 2.6 | 9.6 | 0.00 | 0.00 | 0.00 | 61 | 1002.7 |
| 20260504200009 | 75 | 150 | 3.5 | 9.6 | 0.00 | 0.00 | 0.00 | 62 | 1003.0 |
| 20260504195504 | 74 | 113 | 3.5 | 9.6 | 0.00 | 0.00 | 0.00 | 63 | 1002.8 |
| 20260504194958 | 74 | 144 | 2.6 | 8.7 | 0.00 | 0.00 | 0.00 | 64 | 1002.9 |
| 20260504194452 | 73 | 88 | 2.6 | 8.7 | 0.00 | 0.00 | 0.00 | 65 | 1003.0 |
| 20260504193946 | 73 | 144 | 3.5 | 8.7 | 0.00 | 0.00 | 0.00 | 63 | 1003.0 |
| 20260504193440 | 73 | 116 | 3.5 | 8.7 | 0.00 | 0.00 | 0.00 | 65 | 1003.1 |
| 20260504192934 | 72 | 113 | 3.5 | 10.4 | 0.00 | 0.00 | 0.00 | 67 | 1003.2 |
| 20260504192428 | 71 | 105 | 3.5 | 11.3 | 0.00 | 0.00 | 0.00 | 68 | 1003.3 |
| 20260504191921 | 71 | 82 | 2.6 | 11.3 | 0.00 | 0.00 | 0.00 | 68 | 1003.3 |
| 20260504191415 | 69 | 127 | 2.6 | 7.0 | 0.00 | 0.00 | 0.00 | 73 | 1003.5 |
| 20260504190910 | 68 | 122 | 2.6 | 7.8 | 0.00 | 0.00 | 0.00 | 75 | 1003.2 |
| 20260504190404 | 66 | 0 | 2.6 | 7.8 | 0.00 | 0.00 | 0.00 | 75 | 1003.0 |
| 20260504190346 | 66 | 65 | 2.6 | 7.8 | 0.00 | 0.00 | 0.00 | 75 | 1003.1 |
| 20260504185352 | 65 | 80 | 2.6 | 8.7 | 0.00 | 0.00 | 0.00 | 75 | 1002.8 |
| 20260504184846 | 65 | 72 | 3.5 | 9.6 | 0.00 | 0.00 | 0.00 | 75 | 1003.0 |
| 20260504184340 | 66 | 58 | 2.6 | 9.6 | 0.00 | 0.00 | 0.00 | 74 | 1003.5 |
| 20260504183834 | 66 | 115 | 3.5 | 7.8 | 0.00 | 0.00 | 0.00 | 72 | 1004.2 |
| 20260504183328 | 67 | 146 | 3.5 | 7.8 | 0.00 | 0.00 | 0.00 | 71 | 1004.2 |
| 20260504183040 | 67 | 70 | 2.6 | 7.8 | 0.00 | 0.00 | 0.00 | 70 | 1004.3 |
| 20260504182317 | 67 | 102 | 2.6 | 6.1 | 0.00 | 0.00 | 0.00 | 70 | 1004.5 |
| 20260504181809 | 67 | 88 | 2.6 | 7.8 | 0.00 | 0.00 | 0.00 | 71 | 1004.5 |
| 20260504181307 | 67 | 88 | 2.6 | 7.8 | 0.00 | 0.00 | 0.00 | 72 | 1004.3 |
| 20260504180807 | 66 | 153 | 2.6 | 6.1 | 0.00 | 0.00 | 0.00 | 73 | 1004.1 |
| 20260504180306 | 66 | 146 | 1.7 | 6.1 | 0.00 | 0.00 | 0.00 | 72 | 1004.3 |
| 20260504175806 | 66 | 138 | 1.7 | 5.2 | 0.00 | 0.00 | 0.00 | 73 | 1004.3 |
| 20260504175306 | 66 | 116 | 1.7 | 5.2 | 0.00 | 0.00 | 0.00 | 73 | 1004.3 |
| 20260504175026 | 66 | 57 | 1.7 | 6.1 | 0.00 | 0.00 | 0.00 | 73 | 1004.2 |
| 20260504174306 | 66 | 140 | 1.7 | 6.1 | 0.00 | 0.00 | 0.00 | 75 | 1004.3 |
| 20260504173806 | 66 | 96 | 1.7 | 5.2 | 0.00 | 0.00 | 0.00 | 75 | 1004.5 |
| 20260504173523 | 66 | 88 | 2.6 | 7.0 | 0.00 | 0.00 | 0.00 | 73 | 1004.7 |
| 20260504172805 | 66 | 88 | 2.6 | 7.8 | 0.00 | 0.00 | 0.00 | 72 | 1004.7 |
| 20260504172306 | 66 | 69 | 1.7 | 7.8 | 0.00 | 0.00 | 0.00 | 71 | 1004.8 |
| 20260504171805 | 65 | 80 | 1.7 | 7.0 | 0.00 | 0.00 | 0.00 | 70 | 1004.9 |
| 20260504171305 | 65 | 112 | 2.6 | 7.0 | 0.00 | 0.00 | 0.00 | 71 | 1004.9 |
| 20260504170806 | 65 | 115 | 1.7 | 6.1 | 0.00 | 0.00 | 0.00 | 72 | 1004.8 |
| 20260504170301 | 64 | 130 | 1.7 | 6.1 | 0.00 | 0.00 | 0.00 | 72 | 1004.9 |
| 20260504160258 | 65 | 101 | 2.6 | 9.6 | 0.00 | 0.00 | 0.00 | 66 | 1005.2 |
| 20260504150750 | 66 | 152 | 1.7 | 7.0 | 0.00 | 0.00 | 0.00 | 62 | 1006.2 |
| 20260504150251 | 66 | 103 | 1.7 | 6.1 | 0.00 | 0.00 | 0.00 | 61 | 1006.3 |
| 20260504141014 | 68 | 154 | 2.6 | 11.3 | 0.00 | 0.00 | 0.00 | 59 | 1006.4 |
| 20260504140238 | 68 | 141 | 3.5 | 11.3 | 0.00 | 0.00 | 0.00 | 59 | 1006.3 |
| 20260504130631 | 64 | 199 | 2.6 | 7.0 | 0.00 | 0.00 | 0.00 | 68 | 1007.0 |
| 20260504130125 | 64 | 92 | 2.6 | 7.8 | 0.00 | 0.00 | 0.00 | 68 | 1007.1 |
| 20260504120205 | 61 | 144 | 1.7 | 3.5 | 0.00 | 0.00 | 0.00 | 71 | 1007.4 |
| 20260504110407 | 59 | 265 | 0.0 | 1.7 | 0.00 | 0.00 | 0.00 | 73 | 1007.2 |
| 20260504100517 | 60 | 90 | 0.0 | 1.7 | 0.00 | 0.00 | 0.00 | 73 | 1007.5 |
| 20260504081720 | 60 | 101 | 0.0 | 0.9 | 0.00 | 0.00 | 0.00 | 75 | 1007.5 |
| 20260504081220 | 60 | 101 | 0.0 | 1.7 | 0.00 | 0.00 | 0.00 | 75 | 1007.5 |
| 20260504080721 | 60 | 101 | 0.0 | 1.7 | 0.00 | 0.00 | 0.00 | 74 | 1007.5 |
| 20260504080218 | 60 | 101 | 0.0 | 0.9 | 0.00 | 0.00 | 0.00 | 74 | 1007.4 |
| 20260504070212 | 62 | 101 | 0.0 | 0.0 | 0.00 | 0.00 | 0.00 | 70 | 1007.6 |
| 20260504060110 | 66 | 339 | 0.9 | 3.5 | 0.00 | 0.00 | 0.00 | 59 | 1008.1 |
| 20260504050513 | 66 | 203 | 0.9 | 3.5 | 0.00 | 0.00 | 0.00 | 58 | 1007.5 |
| 20260504050011 | 66 | 203 | 0.9 | 3.5 | 0.00 | 0.00 | 0.00 | 58 | 1007.4 |
| 20260504045505 | 66 | 200 | 0.9 | 2.6 | 0.00 | 0.00 | 0.00 | 57 | 1007.3 |
| 20260504044959 | 66 | 63 | 0.9 | 4.3 | 0.00 | 0.00 | 0.00 | 57 | 1007.3 |
| 20260504044453 | 67 | 142 | 0.9 | 4.3 | 0.00 | 0.00 | 0.00 | 57 | 1007.3 |
| 20260504044207 | 67 | 198 | 0.9 | 2.6 | 0.00 | 0.00 | 0.00 | 57 | 1007.4 |
| 20260504043441 | 67 | 217 | 0.9 | 2.6 | 0.00 | 0.00 | 0.00 | 56 | 1007.5 |
| 20260504042935 | 67 | 132 | 0.0 | 1.7 | 0.00 | 0.00 | 0.00 | 55 | 1007.5 |
| 20260504042429 | 68 | 132 | 0.0 | 1.7 | 0.00 | 0.00 | 0.00 | 55 | 1007.6 |
| 20260504041923 | 68 | 171 | 0.9 | 6.1 | 0.00 | 0.00 | 0.00 | 54 | 1007.7 |
| 20260504041416 | 68 | 142 | 0.9 | 6.1 | 0.00 | 0.00 | 0.00 | 54 | 1007.9 |
| 20260504041129 | 69 | 119 | 0.9 | 2.6 | 0.00 | 0.00 | 0.00 | 53 | 1008.0 |
| 20260504040405 | 69 | 119 | 0.9 | 3.5 | 0.00 | 0.00 | 0.00 | 53 | 1008.1 |
| 20260504035859 | 69 | 211 | 1.7 | 5.2 | 0.00 | 0.00 | 0.00 | 53 | 1008.2 |
| 20260504035353 | 69 | 224 | 2.6 | 5.2 | 0.00 | 0.00 | 0.00 | 52 | 1008.2 |
| 20260504034847 | 70 | 190 | 2.6 | 7.8 | 0.00 | 0.00 | 0.00 | 52 | 1007.9 |
| 20260504034340 | 70 | 109 | 2.6 | 8.7 | 0.00 | 0.00 | 0.00 | 52 | 1007.3 |
| 20260504033835 | 70 | 76 | 1.7 | 8.7 | 0.00 | 0.00 | 0.00 | 53 | 1007.8 |
| 20260504033329 | 70 | 76 | 1.7 | 6.1 | 0.00 | 0.00 | 0.00 | 53 | 1008.2 |
| 20260504032824 | 69 | 147 | 2.6 | 6.1 | 0.00 | 0.00 | 0.00 | 53 | 1008.2 |
| 20260504032317 | 69 | 129 | 1.7 | 6.1 | 0.00 | 0.00 | 0.00 | 53 | 1008.4 |
| 20260504031811 | 69 | 158 | 0.9 | 4.3 | 0.00 | 0.00 | 0.00 | 54 | 1008.4 |
| 20260504031305 | 69 | 144 | 0.9 | 4.3 | 0.00 | 0.00 | 0.00 | 53 | 1008.4 |
| 20260504030758 | 69 | 146 | 0.9 | 2.6 | 0.00 | 0.00 | 0.00 | 54 | 1008.5 |
| 20260504030253 | 69 | 140 | 0.9 | 3.5 | 0.00 | 0.00 | 0.00 | 53 | 1008.5 |
| 20260504025747 | 70 | 73 | 0.9 | 3.5 | 0.00 | 0.00 | 0.00 | 53 | 1008.4 |
| 20260504025241 | 70 | 167 | 0.0 | 2.6 | 0.00 | 0.00 | 0.00 | 52 | 1008.3 |
| 20260504024735 | 70 | 117 | 0.0 | 1.7 | 0.00 | 0.00 | 0.00 | 52 | 1008.3 |
| 20260504024229 | 70 | 117 | 0.0 | 2.6 | 0.00 | 0.00 | 0.00 | 52 | 1008.3 |
| 20260504023723 | 71 | 117 | 0.0 | 2.6 | 0.00 | 0.00 | 0.00 | 51 | 1008.3 |
| 20260504023216 | 71 | 123 | 0.0 | 2.6 | 0.00 | 0.00 | 0.00 | 51 | 1008.3 |
| 20260504022934 | 71 | 117 | 0.0 | 4.3 | 0.00 | 0.00 | 0.00 | 50 | 1008.4 |
| 20260504022205 | 71 | 183 | 0.9 | 4.3 | 0.00 | 0.00 | 0.00 | 49 | 1008.4 |
| 20260504021849 | 71 | 150 | 0.9 | 5.2 | 0.00 | 0.00 | 0.00 | 49 | 1008.4 |
| 20260504021738 | 71 | 181 | 0.9 | 5.2 | 0.00 | 0.00 | 0.00 | 49 | 1008.3 |
| 20260504020647 | 72 | 126 | 0.9 | 4.3 | 0.00 | 0.00 | 0.00 | 49 | 1008.3 |
| 20260504020141 | 72 | 178 | 0.9 | 4.3 | 0.00 | 0.00 | 0.00 | 48 | 1008.3 |
| 20260504015635 | 72 | 219 | 0.9 | 6.1 | 0.00 | 0.00 | 0.00 | 48 | 1008.3 |
| 20260504015348 | 72 | 179 | 0.9 | 6.1 | 0.00 | 0.00 | 0.00 | 48 | 1008.3 |
| 20260504014623 | 72 | 202 | 0.9 | 3.5 | 0.00 | 0.00 | 0.00 | 48 | 1008.3 |
| 20260504014117 | 72 | 80 | 0.9 | 3.5 | 0.00 | 0.00 | 0.00 | 48 | 1008.2 |
| 20260504013611 | 72 | 134 | 0.9 | 5.2 | 0.00 | 0.00 | 0.00 | 47 | 1008.2 |
| 20260504013105 | 72 | 228 | 1.7 | 5.2 | 0.00 | 0.00 | 0.00 | 47 | 1008.2 |
| 20260504012821 | 72 | 164 | 0.9 | 4.3 | 0.00 | 0.00 | 0.00 | 47 | 1007.8 |
| 20260504012053 | 72 | 140 | 0.9 | 5.2 | 0.00 | 0.00 | 0.00 | 47 | 1007.7 |
| 20260504011547 | 73 | 95 | 0.9 | 5.2 | 0.00 | 0.00 | 0.00 | 46 | 1007.7 |
| 20260504011305 | 73 | 111 | 0.9 | 3.5 | 0.00 | 0.00 | 0.00 | 46 | 1007.6 |
| 20260504010535 | 73 | 116 | 0.9 | 3.5 | 0.00 | 0.00 | 0.00 | 45 | 1007.6 |
| 20260504010248 | 73 | 125 | 0.9 | 3.5 | 0.00 | 0.00 | 0.00 | 45 | 1007.6 |
| 20260504005523 | 74 | 96 | 0.9 | 2.6 | 0.00 | 0.00 | 0.00 | 45 | 1007.6 |
| 20260504005022 | 74 | 126 | 0.9 | 1.7 | 0.00 | 0.00 | 0.00 | 45 | 1007.7 |
| 20260504004520 | 74 | 125 | 0.9 | 1.7 | 0.00 | 0.00 | 0.00 | 44 | 1007.6 |
| 20260504004018 | 74 | 132 | 0.9 | 2.6 | 0.00 | 0.00 | 0.00 | 44 | 1007.6 |
| 20260504003516 | 75 | 142 | 0.9 | 3.5 | 0.00 | 0.00 | 0.00 | 43 | 1007.6 |
| 20260504003016 | 75 | 51 | 0.9 | 3.5 | 0.00 | 0.00 | 0.00 | 43 | 1007.6 |
| 20260504002516 | 75 | 123 | 0.9 | 3.5 | 0.00 | 0.00 | 0.00 | 42 | 1007.7 |
| 20260504002015 | 75 | 123 | 0.9 | 3.5 | 0.00 | 0.00 | 0.00 | 43 | 1007.7 |
| 20260504001515 | 75 | 135 | 0.9 | 3.5 | 0.00 | 0.00 | 0.00 | 42 | 1007.7 |
| 20260504001235 | 75 | 133 | 0.9 | 3.5 | 0.00 | 0.00 | 0.00 | 41 | 1007.7 |
| 20260504000514 | 76 | 232 | 0.9 | 2.6 | 0.00 | 0.00 | 0.00 | 42 | 1007.7 |
| 20260504000013 | 76 | 126 | 0.9 | 6.1 | 0.00 | 0.00 | 0.00 | 41 | 1007.7 |
| 20260503235515 | 76 | 190 | 1.7 | 6.1 | 0.00 | 0.00 | 0.00 | 40 | 1007.8 |
| 20260503235013 | 76 | 144 | 0.9 | 3.5 | 0.00 | 0.00 | 0.00 | 40 | 1007.7 |
| 20260503234513 | 76 | 163 | 0.9 | 5.2 | 0.00 | 0.00 | 0.00 | 40 | 1007.8 |
| 20260503234014 | 76 | 134 | 0.9 | 6.1 | 0.00 | 0.00 | 0.00 | 39 | 1007.8 |
| 20260503233515 | 76 | 98 | 0.9 | 4.3 | 0.00 | 0.00 | 0.00 | 39 | 1007.8 |
| 20260503233011 | 76 | 139 | 1.7 | 4.3 | 0.00 | 0.00 | 0.00 | 38 | 1007.9 |
| 20260503232509 | 77 | 228 | 1.7 | 7.0 | 0.00 | 0.00 | 0.00 | 38 | 1007.9 |
| 20260503232011 | 77 | 26 | 1.7 | 7.0 | 0.00 | 0.00 | 0.00 | 38 | 1008.0 |
| 20260503231510 | 77 | 209 | 1.7 | 6.1 | 0.00 | 0.00 | 0.00 | 37 | 1008.0 |
| 20260503231009 | 78 | 207 | 1.7 | 6.1 | 0.00 | 0.00 | 0.00 | 37 | 1008.0 |
| 20260503230952 | 78 | 78 | 1.7 | 7.0 | 0.00 | 0.00 | 0.00 | 36 | 1008.1 |
| 20260503230009 | 78 | 104 | 2.6 | 7.0 | 0.00 | 0.00 | 0.00 | 36 | 1008.1 |
| 20260503225510 | 78 | 171 | 3.5 | 10.4 | 0.00 | 0.00 | 0.00 | 35 | 1008.1 |
| 20260503225011 | 78 | 147 | 3.5 | 12.2 | 0.00 | 0.00 | 0.00 | 34 | 1008.2 |
| 20260503224511 | 78 | 114 | 3.5 | 12.2 | 0.00 | 0.00 | 0.00 | 34 | 1008.2 |
| 20260503224010 | 78 | 115 | 3.5 | 10.4 | 0.00 | 0.00 | 0.00 | 34 | 1008.3 |
| 20260503223510 | 78 | 107 | 3.5 | 11.3 | 0.00 | 0.00 | 0.00 | 33 | 1008.3 |
| 20260503223010 | 79 | 118 | 3.5 | 11.3 | 0.00 | 0.00 | 0.00 | 34 | 1008.4 |
| 20260503222510 | 79 | 142 | 2.6 | 9.6 | 0.00 | 0.00 | 0.00 | 34 | 1008.3 |
| 20260503222010 | 78 | 121 | 2.6 | 9.6 | 0.00 | 0.00 | 0.00 | 34 | 1008.3 |
| 20260503221736 | 78 | 159 | 2.6 | 8.7 | 0.00 | 0.00 | 0.00 | 33 | 1008.4 |